Location: Kitchener
(43.4500°N, 80.5000°W)
Time: 08:42:19
(UTC-04:00)

Cosmos 1939 Rocket - Visible Passes

Search period start: 30 June 2015 00:00
Search period end: 10 July 2015 00:00
Orbit: 536 x 590 km, 97.6° (Epoch: 29 June)

Date Brightness Start Highest point End Pass type
(mag) Time Alt. Az. Time Alt. Az. Time Alt. Az.
30 Jun 4.8 22:37:00 10° SSW 22:40:35 28° W 22:44:11 10° NW visible
01 Jul 4.7 22:36:44 10° SSW 22:40:21 28° W 22:43:57 10° NW visible
02 Jul 4.7 22:36:29 10° SSW 22:40:07 28° W 22:43:43 10° NW visible
03 Jul 4.7 22:36:14 10° SSW 22:39:52 28° W 22:43:29 10° NW visible
04 Jul 4.7 22:35:59 10° SSW 22:39:37 28° W 22:43:15 10° NW visible
05 Jul 4.7 22:35:43 10° SSW 22:39:22 29° W 22:43:01 10° NW visible
06 Jul 4.7 22:35:28 10° SSW 22:39:07 29° W 22:42:46 10° NW visible
07 Jul 4.7 22:35:12 10° SSW 22:38:52 29° W 22:42:31 10° NW visible
08 Jul 4.7 22:34:57 10° SSW 22:38:37 29° W 22:42:16 10° NW visible
09 Jul 4.7 22:34:41 10° SSW 22:38:22 29° W 22:42:01 10° NW visible
